Location: Aiyede
(8.4833°N, 4.4500°E)
Time: 09:50:04
(UTC+00:00)

H-10 deb - Pass Details

Date: 24 September 2020
Orbit: 374 x 32717 km, 7.1° (Epoch: 20 October)

Event Time Altitude Azimuth Distance (km) Brightness Sun altitude
Rises 19:34:23 0° 263° (W) 18,849 10.7 -29.9°
Reaches altitude 10° 20:06:14 10° 262° (W) 9,979 8.8 -37.7°
Enters shadow 20:26:42 53° 241° (WSW) 1,814 4.4 -42.8°
